Wind_Speed
6 7 8 9 10 10 11 11 12 13 14 14 15 16 17 17 18 18 19 19 19 19 19 19 19 19 18 18 17 16 16 15 15 13 12 11 10 8 7 6 4 4 5
7 8 9 10 11 12 12 13 14 14 15 16 17 18 19 19 19 20 20 21 21 21 21 21 21 20 20 19 18 16 16 16 15 14 13 12 11 9 8 6 4 4 4
8 10 11 12 13 14 15 15 15 16 16 17 18 19 20 20 21 22 22 22 23 23 24 24 23 22 21 20 19 17 16 16 15 14 13 12 11 10 9 6 5 3 2
10 11 12 13 14 15 15 15 15 16 17 18 18 19 20 21 22 23 23 23 24 24 25 25 25 24 23 21 20 19 17 16 15 14 13 12 11 10 9 7 5 3 2
11 12 12 13 14 14 14 14 14 15 16 17 18 19 21 22 22 23 23 23 24 24 24 25 25 25 24 23 22 21 19 17 16 15 14 13 12 11 10 8 6 4 2
11 11 11 12 12 12 13 13 14 15 15 16 18 19 20 21 22 22 23 23 24 25 25 25 25 25 25 24 24 22 20 18 17 16 16 15 13 12 11 9 7 6 4
10 11 11 11 11 12 12 13 13 14 15 15 16 17 17 19 20 21 21 22 23 24 25 26 26 26 25 24 24 23 21 19 18 17 16 15 14 13 12 11 9 7 5
10 10 10 10 10 10 11 12 12 13 14 14 15 15 16 17 18 19 20 21 22 23 24 25 26 26 25 25 24 23 21 20 19 18 17 16 15 14 14 12 10 9 7
9 9 10 10 10 10 10 11 12 13 13 14 15 15 16 16 17 18 19 20 21 23 24 25 26 27 27 26 25 24 23 21 19 19 18 17 16 15 14 13 12 11 9
8 8 9 9 9 10 10 11 12 13 14 14 15 16 16 17 17 18 18 19 20 21 22 24 25 26 27 27 26 25 25 23 21 19 19 19 17 16 15 14 13 12 11
7 8 8 8 8 9 10 11 12 13 14 15 16 16 17 17 18 18 19 19 20 21 22 23 24 25 26 27 27 27 26 24 23 21 20 20 19 18 16 15 15 14 12
7 7 7 7 7 8 10 11 12 13 15 16 17 17 18 19 19 19 20 20 20 20 21 22 23 24 25 27 28 27 27 25 24 21 21 20 20 19 18 16 16 15 14
6 6 6 6 7 8 10 11 13 14 15 16 17 19 19 19 19 19 20 20 20 20 21 21 21 22 24 25 26 28 27 26 26 24 22 21 21 20 19 18 17 17 15
6 5 5 6 6 8 9 11 13 14 16 17 18 19 20 20 20 20 20 20 20 20 20 20 20 21 23 24 25 27 28 26 26 25 23 22 21 21 20 20 19 18 17
6 5 5 6 7 9 10 12 13 15 16 18 19 20 20 20 20 20 20 20 19 19 19 19 19 20 22 23 24 25 27 27 27 25 24 23 23 22 21 20 20 19 18
5 5 6 7 8 9 10 12 14 16 17 19 19 20 20 20 20 20 20 20 19 18 17 16 17 18 20 22 24 24 26 27 27 27 26 24 24 23 22 21 21 21 20
5 5 6 7 8 9 11 12 14 16 18 19 20 20 20 21 21 20 20 19 18 17 15 14 15 15 17 20 22 24 26 27 26 27 27 26 25 25 23 22 22 21 21
5 5 6 7 8 10 11 13 15 17 19 19 20 20 20 21 21 21 21 19 17 15 13 12 12 13 14 17 20 23 24 26 27 27 27 26 26 26 24 24 24 23 22
5 5 6 7 8 10 11 14 16 17 19 19 20 20 20 20 21 21 20 18 16 14 12 10 9 10 12 14 17 20 23 25 26 27 27 26 26 26 26 26 25 24 23
5 5 6 7 8 10 12 14 16 18 19 19 20 20 20 20 20 21 19 18 16 14 12 9 8 8 10 11 14 18 21 24 25 27 28 27 27 27 27 27 26 26 25
6 6 6 8 9 10 12 14 16 17 18 19 19 20 20 20 20 20 19 18 16 13 12 9 7 6 8 10 12 15 19 22 24 26 28 28 27 27 27 27 27 26 26
6 6 7 8 9 10 12 14 15 17 18 18 19 19 20 20 20 19 19 18 16 14 11 9 6 5 6 8 11 14 16 19 22 24 27 27 27 26 27 27 27 27 26
7 7 7 8 9 10 12 13 15 16 17 17 18 19 19 20 19 19 19 18 16 14 12 9 6 4 4 6 9 12 15 17 20 22 25 26 26 26 27 26 26 26 26
7 7 8 9 9 10 11 13 14 15 16 17 17 18 19 19 19 19 18 18 16 14 12 11 8 4 3 4 7 10 13 16 18 20 23 25 25 25 26 26 25 26 26
8 8 8 9 10 10 11 12 13 14 15 16 17 18 18 19 19 18 18 17 16 14 13 11 9 6 3 2 5 8 11 13 15 18 21 23 24 25 25 26 26 25 25
8 8 9 9 10 10 10 11 12 13 14 15 16 17 18 18 18 18 17 17 16 14 12 11 9 8 5 1 2 5 9 11 14 16 18 20 22 23 24 25 27 26 25
Wind_Direction
307 308 308 306 306 303 297 291 286 283 281 279 277 274 273 274 273 273 270 267 266 264 264 265 267 269 268 269 269 268 268 268 266 265 265 269 272 274 280 291 307 336 357
310 312 311 307 305 303 299 293 287 284 282 279 278 276 273 272 272 272 271 267 266 263 263 265 266 267 267 268 267 267 267 266 264 263 263 265 266 267 271 279 292 320 351
311 312 310 307 305 305 301 296 292 288 285 282 280 279 275 273 273 272 272 269 265 263 263 264 264 264 265 265 264 265 265 264 262 261 260 261 260 260 262 267 279 294 333
309 309 309 307 306 306 304 300 296 293 290 287 284 282 279 277 276 274 272 269 266 266 264 262 262 261 262 262 262 262 262 261 260 258 257 257 255 254 254 256 264 269 288
309 310 310 309 309 308 308 306 303 299 296 292 289 285 282 280 278 278 273 270 267 266 266 262 261 260 259 259 259 260 260 256 256 255 253 252 250 249 248 247 250 250 245
310 312 313 313 313 313 314 312 310 308 303 299 295 290 288 284 280 279 276 272 269 267 264 262 261 258 257 257 255 256 256 253 252 251 250 247 247 245 241 240 240 239 230
315 317 318 319 318 318 319 319 318 316 312 308 304 299 295 291 287 283 278 275 272 269 266 262 260 257 255 254 254 252 251 250 248 248 246 243 241 239 238 235 234 230 221
318 321 322 324 324 325 326 326 324 323 321 318 314 310 305 300 295 290 284 279 276 271 268 265 260 256 254 252 251 248 247 247 247 244 242 239 236 233 234 232 228 223 215
320 322 325 328 329 330 332 332 331 330 329 327 324 320 316 310 304 297 290 285 279 274 270 266 262 258 253 251 248 246 244 244 245 243 238 235 232 230 231 228 224 219 212
319 324 328 330 332 334 334 335 336 334 333 331 328 325 321 317 312 306 298 291 284 279 274 268 263 259 253 249 247 245 244 242 241 240 235 232 230 229 228 225 220 216 210
320 325 330 333 334 336 337 339 340 339 336 333 331 327 324 321 316 311 305 298 290 284 278 271 265 259 253 249 246 244 240 238 237 235 233 231 228 226 224 223 219 214 209
320 325 330 334 336 341 342 343 342 341 339 337 334 331 328 324 320 316 310 304 296 287 280 273 266 260 253 248 245 240 236 235 231 231 230 229 226 223 221 219 217 212 208
314 317 324 330 335 341 344 344 344 344 342 339 337 334 331 327 323 318 314 308 301 293 284 276 267 258 251 247 242 238 233 232 228 229 229 227 223 221 219 218 216 212 207
304 310 320 330 336 342 346 347 347 346 344 343 341 337 334 331 327 322 317 312 305 297 288 279 268 258 250 245 241 237 232 228 225 224 226 224 221 218 217 217 216 213 208
299 306 321 334 340 344 347 348 348 346 345 344 342 339 337 335 332 328 323 316 309 302 292 282 271 258 249 243 240 236 229 225 223 222 222 221 219 216 216 217 216 213 210
298 309 322 332 338 343 346 346 346 346 346 345 344 342 340 339 335 331 328 322 315 307 298 287 273 259 249 240 236 233 227 223 222 221 219 219 216 214 215 215 215 215 212
297 307 320 329 336 340 342 344 345 345 346 345 345 344 343 342 340 338 335 329 321 313 303 290 276 260 248 238 233 228 222 219 218 217 217 217 215 213 214 215 215 214 212
295 304 318 326 333 337 340 343 344 345 345 345 346 346 345 344 343 342 340 335 330 323 313 297 279 261 247 237 231 226 222 217 215 216 215 216 214 212 214 215 215 214 213
290 299 313 323 330 334 339 342 344 344 345 346 347 346 347 346 346 346 345 342 338 333 323 307 282 260 246 237 230 224 221 217 216 214 212 214 213 213 215 215 215 214 214
284 291 307 320 327 334 339 341 343 344 345 347 347 348 348 348 348 349 348 347 345 340 333 319 291 263 245 236 227 222 219 216 215 212 211 211 212 213 213 213 214 215 215
278 288 304 315 324 332 337 340 342 344 346 347 349 349 349 350 350 351 351 350 350 347 341 333 309 272 248 236 227 222 217 214 214 211 210 210 211 210 209 211 213 214 215
274 287 301 312 321 329 335 339 342 344 346 348 350 351 352 351 350 350 351 352 350 349 348 344 327 290 257 237 227 219 215 214 214 211 210 209 209 209 208 210 212 214 215
273 283 296 308 316 324 332 337 341 344 346 349 351 352 353 353 352 351 352 353 353 353 351 350 343 317 269 240 221 214 214 215 211 210 211 211 210 209 208 209 212 214 216
272 279 291 302 311 319 328 334 339 344 347 349 351 353 354 355 355 354 354 355 355 356 357 359 356 343 292 238 220 215 212 212 210 208 210 212 212 210 210 212 213 214 216
273 277 286 298 306 315 323 331 338 343 346 349 352 353 356 357 357 356 356 357 358 359 2 5 7 3 349 249 218 211 210 212 211 211 211 212 212 213 214 215 217 217 217
273 274 282 293 300 308 318 327 335 341 345 348 351 353 356 357 357 357 358 359 0 2 3 4 7 11 11 346 219 206 208 212 214 214 212 211 212 215 216 216 218 220 223
Height
5884 5883 5882 5882 5881 5880 5879 5879 5878 5877 5876 5876 5875 5875 5874 5874 5873 5873 5872 5872 5872 5872 5872 5872 5872 5872 5872 5872 5872 5872 5872 5872 5872 5873 5873 5873 5873 5873 5873 5873 5872 5872 5871
5883 5882 5881 5880 5879 5878 5877 5876 5876 5875 5874 5873 5873 5872 5871 5871 5871 5870 5869 5869 5869 5869 5869 5869 5870 5869 5869 5870 5870 5870 5870 5870 5870 5871 5871 5871 5872 5872 5872 5872 5872 5872 5871
5881 5880 5880 5878 5877 5876 5875 5874 5873 5872 5871 5871 5870 5869 5868 5868 5867 5867 5866 5866 5866 5866 5866 5866 5866 5866 5866 5867 5867 5867 5868 5868 5868 5869 5869 5870 5870 5871 5871 5872 5872 5872 5871
5880 5879 5878 5877 5875 5874 5873 5872 5871 5870 5869 5868 5867 5866 5865 5864 5863 5863 5862 5862 5862 5862 5862 5862 5862 5862 5863 5863 5864 5864 5865 5866 5866 5867 5867 5868 5869 5870 5870 5871 5872 5872 5871
5878 5877 5876 5875 5873 5872 5871 5869 5868 5867 5866 5865 5863 5862 5861 5860 5860 5858 5857 5857 5857 5857 5857 5857 5858 5858 5859 5860 5860 5861 5862 5863 5864 5864 5865 5866 5867 5868 5869 5870 5871 5871 5871
5877 5876 5874 5873 5871 5870 5869 5867 5866 5864 5863 5861 5860 5859 5857 5856 5855 5854 5853 5853 5853 5852 5853 5853 5853 5854 5855 5855 5856 5857 5858 5860 5861 5862 5863 5864 5865 5866 5868 5869 5870 5871 5871
5875 5874 5873 5871 5870 5868 5867 5865 5864 5862 5860 5859 5857 5856 5854 5853 5851 5850 5849 5849 5848 5848 5848 5848 5848 5849 5850 5851 5852 5853 5855 5856 5858 5859 5860 5862 5863 5864 5866 5867 5869 5870 5870
5874 5872 5871 5870 5868 5867 5865 5863 5862 5860 5858 5856 5855 5853 5851 5849 5848 5846 5845 5844 5843 5843 5842 5843 5843 5844 5845 5846 5847 5849 5850 5852 5854 5856 5857 5859 5860 5862 5864 5866 5867 5869 5870
5872 5871 5869 5868 5867 5865 5863 5862 5860 5858 5856 5854 5852 5850 5848 5846 5844 5842 5841 5839 5838 5838 5837 5837 5838 5838 5840 5841 5842 5844 5846 5848 5851 5852 5854 5856 5858 5860 5862 5864 5865 5867 5869
5871 5869 5868 5867 5865 5863 5862 5860 5858 5856 5854 5852 5850 5848 5845 5843 5841 5838 5836 5835 5834 5833 5832 5832 5832 5833 5834 5835 5837 5839 5842 5844 5846 5849 5851 5853 5855 5857 5859 5861 5863 5865 5867
5869 5868 5867 5865 5864 5862 5861 5859 5857 5855 5852 5850 5848 5845 5842 5840 5837 5835 5832 5830 5829 5827 5827 5826 5826 5827 5828 5829 5831 5834 5837 5839 5842 5845 5847 5849 5852 5854 5857 5859 5861 5864 5865
5868 5867 5866 5864 5863 5861 5859 5857 5855 5853 5850 5848 5845 5842 5839 5836 5834 5831 5828 5826 5824 5822 5821 5820 5820 5821 5822 5823 5826 5828 5831 5835 5838 5841 5843 5846 5848 5851 5854 5857 5859 5862 5864
5867 5866 5865 5863 5862 5860 5858 5856 5854 5851 5848 5845 5842 5839 5836 5833 5830 5827 5824 5821 5819 5817 5815 5814 5814 5815 5816 5818 5820 5823 5826 5829 5833 5837 5839 5842 5845 5848 5851 5854 5857 5859 5862
5865 5865 5863 5862 5860 5859 5857 5855 5852 5849 5846 5843 5840 5837 5833 5830 5826 5823 5820 5816 5814 5811 5810 5808 5808 5809 5810 5812 5814 5817 5821 5824 5828 5832 5835 5838 5842 5845 5848 5851 5854 5857 5860
5864 5863 5862 5860 5859 5857 5855 5853 5851 5848 5844 5841 5838 5834 5830 5827 5823 5819 5816 5812 5809 5806 5804 5803 5803 5803 5804 5806 5809 5812 5815 5819 5823 5827 5831 5834 5838 5842 5845 5848 5852 5855 5858
5862 5861 5860 5859 5857 5856 5854 5851 5849 5846 5842 5839 5835 5831 5828 5824 5820 5816 5812 5808 5805 5802 5800 5798 5797 5798 5799 5801 5803 5806 5810 5814 5818 5822 5826 5830 5834 5838 5841 5845 5848 5852 5855
5860 5859 5858 5857 5856 5854 5852 5850 5847 5844 5840 5837 5833 5829 5825 5821 5817 5813 5809 5804 5801 5798 5795 5794 5793 5793 5794 5796 5798 5801 5805 5809 5813 5818 5822 5826 5830 5834 5838 5842 5845 5849 5852
5858 5858 5857 5856 5854 5853 5850 5848 5845 5842 5838 5835 5831 5827 5823 5818 5814 5810 5806 5801 5797 5794 5792 5790 5789 5789 5790 5792 5794 5797 5800 5804 5808 5813 5817 5821 5826 5830 5834 5838 5842 5846 5849
5857 5856 5855 5854 5853 5851 5849 5846 5843 5840 5836 5833 5829 5825 5821 5816 5812 5808 5803 5799 5795 5792 5789 5787 5787 5786 5787 5788 5790 5792 5796 5800 5804 5808 5813 5817 5822 5826 5830 5834 5838 5842 5846
5855 5854 5854 5853 5851 5849 5847 5845 5842 5838 5835 5831 5827 5823 5819 5815 5810 5806 5802 5797 5793 5790 5787 5785 5784 5784 5784 5785 5787 5789 5792 5796 5800 5804 5808 5813 5818 5822 5826 5830 5834 5839 5842
5854 5853 5852 5851 5849 5848 5846 5843 5840 5837 5833 5829 5826 5821 5817 5813 5809 5805 5800 5796 5792 5789 5786 5784 5782 5782 5782 5783 5784 5786 5789 5792 5796 5800 5804 5809 5814 5818 5822 5826 5831 5835 5839
5852 5851 5850 5849 5848 5846 5844 5842 5839 5835 5832 5828 5824 5820 5816 5812 5808 5804 5799 5795 5792 5788 5785 5783 5781 5780 5780 5780 5782 5784 5786 5790 5792 5796 5800 5805 5809 5814 5818 5822 5827 5831 5835
5849 5849 5848 5847 5846 5845 5843 5840 5837 5834 5831 5827 5823 5819 5815 5811 5807 5803 5799 5795 5791 5787 5784 5782 5780 5779 5778 5779 5780 5782 5784 5787 5790 5793 5797 5801 5806 5810 5814 5818 5823 5826 5830
5847 5847 5846 5845 5844 5843 5841 5838 5836 5833 5829 5826 5822 5818 5814 5810 5806 5802 5798 5794 5791 5787 5784 5782 5780 5778 5778 5778 5779 5780 5782 5784 5787 5791 5794 5798 5802 5806 5811 5815 5819 5822 5826
5845 5845 5844 5843 5842 5841 5839 5837 5834 5831 5828 5825 5821 5818 5814 5809 5805 5802 5798 5794 5791 5787 5784 5782 5780 5778 5777 5777 5778 5779 5780 5783 5785 5788 5792 5796 5799 5803 5807 5812 5815 5819 5822
5842 5842 5842 5841 5840 5839 5837 5835 5833 5830 5827 5824 5820 5817 5813 5809 5805 5801 5798 5794 5791 5788 5785 5783 5780 5779 5777 5777 5777 5778 5779 5781 5784 5786 5789 5792 5796 5800 5804 5808 5812 5815 5818